Location: Czekan�w
(50.3488°N, 18.7344°E)
Time: 20:35:19
(UTC+00:00)

STARLINK-1124 - Pass Details

Date: 17 February 2020
Orbit: 548 x 551 km, 53.0° (Epoch: 07 April)

Event Time Altitude Azimuth Distance (km) Brightness Sun altitude
Exits shadow 03:43:40 24° 185° (S) 1,187 5.2 -21.4°
Drops below altitude 10° 03:49:09 10° 78° (ENE) 1,848 7.5 -20.5°
Enters shadow 04:45:50 -70° 248° (WSW) 12,528 10.4 -11.4°
Maximum altitude 05:24:49 82° 342° (NNW) 570 3.7 -5.3°
